Flight Information

DEPARTURE
BULLHEAD CITY, AZ
Elevation:
707
Runways:
16/34 - 8501x150 - ASPH-G
ATIS:
119.825
Ground:
118.25
Tower:
BULLHEAD TOWER 123.9
DESTINATION
,
Elevation:
TPA:
1000 (est.)


6591.7 NM75° True-14° Var61° HDG

Flight Plan:
(click to file on line)

1. Type
2. Aircraft Identification
3. Aircraft Type / Special Equipment
4. True Airspeed
kts
5. Departure Airport
(ICAO code)
6. Arriving Airport
(ICAO code)
7. Cruising Altitude
ft
8. Alternate Airport
(ICAO code)
9. Route of Flight
10. Remarks


00:00:00 Departure ATIS: Destination ATIS:

Clearance Limit:
Route:
Altitude: Expect in minutes
Frequency:
Transponder: (7500 Hijack / 7600 Lost Comms / 7700 Emergency)


KIFP 221552Z 00000KT 10SM OVC080 11/06 A2997
Time: 2021-01-22T15:52:00Z
1611331162
Winds: calm
Visibility: 10.0 sm
Clouds (AGL): OVC 8000
Temperature: 11.0 C
Dew Point: 6.0 C
Pressure: 29.970472 in Hgbr


Notes:

Data extracted from FAA Digital Chart Supplement. Effective: 0901Z Thursday, Dec 31, 2020 to 0901Z Thursday, Jan 28, 2021
Current ATIS data is provided courtisy of PilotEdge.